Regional Weather Roundup
Issued by NWS

Home | Current Version | Previous Version | Graphics & Text | Print | Product List | Glossary On
Versions: 1 2 3 4 5 6 7 8 9 10 11 12 13 14 15 16 17 18 19 20 21 22 23 24 25 26 27 28 29 30 31 32 33 34 35 36 37 38 39 40 41 42 43 44 45 46 47 48 49 50
000
ASUS43 KMPX 221801
RWRMN
WEATHER ROUNDUP FOR MINNESOTA
NATIONAL WEATHER SERVICE TWIN CITIES/CHANHASSEN MN
100 PM CDT TUE MAY 22 2018


NOTE: "FAIR" INDICATES FEW OR NO CLOUDS BELOW 12,000 FEET WITH NO
SIGNIFICANT WEATHER AND/OR OBSTRUCTIONS TO VISIBILITY. N/A MEANS
CURRENT SKY AND/OR WEATHER CONDITIONS ARE NOT AVAILABLE.

MNZ060>063-068>070-221900-
   Twin Cities Metro

CITY           SKY/WX    TMP DP  RH WIND       PRES   REMARKS
TWIN CITIES    FAIR      70  58  65 NW3       30.06F
6HR MIN TEMP:  59; 6HR MAX TEMP:  72;

ST PAUL        PTSUNNY   70  58  65 SE6       30.06F
CRYSTAL        PTSUNNY   70  56  61 SW7       30.05F
BLAINE         PTSUNNY   72  57  60 S3        30.05F
LAKEVILLE      PTSUNNY   68  57  68 CALM      30.06F
EDEN PRAIRIE   CLOUDY    68  58  70 S3        30.06F
6HR MIN TEMP:  58; 6HR MAX TEMP:  70;

SOUTH ST PAUL  FAIR      71  56  59 S6        30.05F
LAKE ELMO      PTSUNNY   66  59  77 CALM      30.07F
$$
MNZ001>005-007-008-013>017-022>024-027-028-221900-
   Northwest Minnesota

CITY           SKY/WX    TMP DP  RH WIND       PRES   REMARKS
BEMIDJI        PTSUNNY   70  54  56 CALM      30.03S
HALLOCK        FAIR      77  57  50 S10       29.97F
ROSEAU         FAIR      75  55  50 S9        30.00S
WARROAD        FAIR      75  55  50 S9        30.01R
THIEF RVR FALL CLOUDY    71  55  56 SW8       30.02F
CROOKSTON      FAIR      73  57  56 S9        30.00F
FOSSTON        FAIR      73  52  46 S8        30.03S
DETROIT LAKES  CLOUDY    68  55  64 S8        30.05S
MOORHEAD       FAIR      72  55  56 SE6       30.01F
PARK RAPIDS    CLOUDY    66  55  67 W6        30.05S
MAHNOMEN       MOCLDY    70  56  60 S7        30.03S
$$
MNZ006-009>011-018-025>026-221900-
   North Central Minnesota

CITY           SKY/WX    TMP DP  RH WIND       PRES   REMARKS
BAUDETTE       FAIR      75  46  35 SE6       30.01F
FLAG ISLAND    FAIR      61  54  77 SE8       30.00S
INTL FALLS     FAIR      76  41  28 VRB3      30.01F
6HR MIN TEMP:  47; 6HR MAX TEMP:  76;

WASKISH          N/A     68  55  64 W8        30.03F
BIG FORK       FAIR      73  54  49 S8        30.03F
LONGVILLE      CLOUDY    66  54  63 SW7       30.05F
GRAND RAPIDS   FAIR      66  54  65 VRB7      30.06F
CRANE LAKE     FAIR      73  37  27 N6        30.03F
ORR            FAIR      73  37  27 CALM      30.00F
COOK           FAIR      72  48  43 CALM      30.03S
WALKER         MOCLDY    66  54  64 SE5       30.05S
$$
MNZ012-019>021-037-221900-
   Northeast Minnesota

CITY           SKY/WX    TMP DP  RH WIND       PRES   REMARKS
DULUTH         PTSUNNY   71  53  52 SW9       30.04F
6HR MIN TEMP:  57; 6HR MAX TEMP:  74;

ELY            FAIR      73  37  27 NW3       30.02F
HIBBING        PTSUNNY   72  52  49 SW8       30.03F
EVELETH        FAIR      72  50  46 W3        30.05S
DULUTH HARBOR  FAIR      70  57  64 E6        30.03F
TWO HARBORS    FAIR      79  55  44 S9        30.01F
SILVER BAY     PTSUNNY   73  48  40 S8        30.01S
GRAND MARAIS     N/A     50  38  63 SW13      30.01S
G MARAIS ARPRT FAIR      72  39  30 SE8       30.03R
$$
MNZ029>031-032-039>041-046>048-054>057-064-221900-
   West Central Minnesota

CITY           SKY/WX    TMP DP  RH WIND       PRES   REMARKS
FERGUS FALLS   FAIR      72  55  56 S6        29.98F
WHEATON        SUNNY     73  54  49 SE8       30.01F
MORRIS         SUNNY     75  55  50 S5        30.00F
ALEXANDRIA     CLOUDY    70  56  61 S8        30.06F
ELBOW LAKE     FAIR      72  57  58 E8        30.03F
WADENA         CLOUDY    66  55  68 S7        30.05S
GLENWOOD       FAIR      70  55  60 E3        30.05F
APPLETON       SUNNY     75  54  46 CALM      30.00F
BENSON         SUNNY     73  57  56 S5        30.03F
ORTONVILLE     SUNNY     75  55  50 CALM      29.99F
MADISON        SUNNY     79  59  50 E9        29.99F
WILLMAR        FAIR      68  57  68 E7        30.05F
$$
MNZ033>034-036-042>043-049>051-058-059-221900-
   Central Minnesota

CITY           SKY/WX    TMP DP  RH WIND       PRES   REMARKS
ST CLOUD       PTSUNNY   70  55  59 SW8       30.05S
6HR MIN TEMP:  50; 6HR MAX TEMP:  70;

SAUK CENTRE    MOCLDY    68  56  65 SE6       30.05F
PAYNESVILLE    PTSUNNY   68  60  74 SE6       30.06F
AITKIN         CLOUDY    66  52  59 S3        30.04F
PINE RIVER     CLOUDY    64  52  63 W3        30.08S
BRAINERD       CLOUDY    70  52  52 S6        30.05F
STAPLES        CLOUDY    66  54  63 SW6       30.05F
LONG PRAIRIE   CLOUDY    68  54  60 SE8       30.06S
LITTLE FALLS   PTSUNNY   68  54  60 CALM      30.06S
LITCHFIELD     FAIR      70  61  73 SE6       30.05F
BUFFALO        CLOUDY    68  56  65 S3        30.06F
MAPLE LAKE     CLOUDY    69  59  69 S3        30.07S
HUTCHINSON     FAIR      70  59  68 CALM      30.06F
$$
MNZ037-044-045-052-053-221900-
   East Central Minnesota

CITY           SKY/WX    TMP DP  RH WIND       PRES   REMARKS
PRINCETON      PTSUNNY   72  57  60 CALM      30.05F
MORA           PTSUNNY   68  54  60 SW6       30.07S
CAMBRIDGE      FAIR      73  57  56 S5        30.06S
RUSH CITY      CLOUDY    69  56  63 SW3       30.06F
MOOSE LAKE     CLOUDY    70  54  56 CALM      30.03F
HINCKLEY       CLOUDY    70  55  60 CALM      30.06S
CLOQUET        CLOUDY    72  52  49 S6        30.04F
MCGREGOR       CLOUDY    68  54  60 S6        30.05F
$$
MNZ071>073-080-081-089-090-097-098-221900-
   Southwest Minnesota

CITY           SKY/WX    TMP DP  RH WIND       PRES   REMARKS
MONTEVIDEO     SUNNY     75  57  53 CALM      30.01F
GRANITE FALLS  SUNNY     74  60  63 E3        30.03S
CANBY          SUNNY     76  58  54 CALM      30.01F
MARSHALL       SUNNY     74  59  59 SE8       30.01F
REDWOOD FALLS  SUNNY     70  62  76 SE7       30.02F
OLIVIA         MOSUNNY   70  59  68 S5        30.02F
PIPESTONE      SUNNY     77  57  50 S6        30.01S
WINDOM         MOSUNNY   73  52  46 E8        30.03S
WORTHINGTON    MOSUNNY   73  62  68 SE13      30.03F
JACKSON        SUNNY     73  59  60 SE8       30.05S
TRACY          SUNNY     73  64  73 E7        30.02F
SLAYTON        PTSUNNY   73  58  60 E5        30.03S
$$
MNZ065>067-074>077-082>085-091>093-221900-
   South Central Minnesota

CITY           SKY/WX    TMP DP  RH WIND       PRES   REMARKS
MANKATO        PTSUNNY   72  58  61 E8        30.04F
NEW ULM        SUNNY     72  57  60 S3        30.02F
ST JAMES       SUNNY     73  57  56 E5        30.03F
FAIRMONT       MOSUNNY   73  59  61 CALM      30.05S
GLENCOE        PTSUNNY   71  59  65 CALM      30.04F
FARIBAULT      PTSUNNY   70  57  64 CALM      30.06F
OWATONNA       FAIR      70  57  64 CALM      30.06F
WASECA         FAIR      72  57  60 CALM      30.06F
ALBERT LEA     FAIR      66  55  68 E6        30.06F
$$
MNZ078>079-086>088-094>096-221900-
   Southeast Minnesota

CITY           SKY/WX    TMP DP  RH WIND       PRES   REMARKS
ROCHESTER      CLOUDY    65  58  78 NW5       30.08F
6HR MIN TEMP:  54; 6HR MAX TEMP:  66;

RED WING       CLOUDY    66  54  63 CALM      30.07F
STANTON        CLOUDY    69  57  65 CALM      30.05F
DODGE CENTER     N/A     64  57  77 NE3       30.07F
WINONA         CLOUDY    61  55  82 CALM      30.07F
AUSTIN         FAIR      70  57  64 CALM      30.06F
PRESTON        CLOUDY    63  55  77 N3        30.10F
$$
ABBREVIATIONS USED IN REMARKS
   TC - TEMPERATURES IN CELSIUS
  WCI - WIND CHILL INDEX
   HX - HEAT INDEX
  VSB - VISIBILITY
$$



USA.gov is the U.S. government's official web portal to all federal, state and local government web resources and services.